Location: Newark
(60.6561°N, 46.5772°E)
Time: 20:07:38
(UTC+00:00)

Tiros 1 despin weight - Pass Details

Date: 26 October 2019
Orbit: 594 x 642 km, 48.2° (Epoch: 20 November)

Event Time Altitude Azimuth Distance (km) Brightness Sun altitude
Rises 00:22:23 0° 257° (WSW) 2,942 - -26.9°
Reaches altitude 10° 00:26:12 10° 226° (SW) 2,035 - -26.4°
Maximum altitude 00:27:52 12° 205° (SSW) 1,916 - -26.3°
Drops below altitude 10° 00:29:32 10° 184° (S) 2,034 - -26.1°
Exits shadow 00:32:08 - 160° (SSE) 2,587 ? -25.8°
Sets 00:33:21 0° 153° (SSE) 2,938 ? -25.6°
